COSMOS 1275 DEB, 42217

Orbit data source: Space-Track

COSMOS 1275 DEB, 42217 is space debris in LEO originally from a launch on Thu, 04 Jun 1981 UTC launched from the Plesetsk Missile And Space Complex (PKMTR). Debris objects in space refer to the collection of defunct objects orbiting the Earth. Examples of debris include non-operational satellites, rocket bodies, and fragments generated from explosions, collisions, or faulty payload assembly.

Loading next visibility...
Identifier
42217, 1981-053UH
Orbit
LEO
Country
Flag of CISCIS
Related business
Manufacturer
Unknown
Mission
Spacecraft
Bus & Motor
Unknown
Mass
Unknown
Launch date (UTC)
1981-06-04 (45 years ago)
Launch vehicle
Unknown
Launch site
Plesetsk Missile And Space Complex (PKMTR)
Object type
Payload
Rocket body
Debris
Shape & HBR
Unknown shape, 0.1 m
Radar Cross Section
Small (<0.1 m²)

Expand to show TLE details & history
Last TLE update: 5 days ago

TLE from 5 days ago
0 COSMOS 1275 DEB
1 42217U 81053UH  26232.49496453  .00000498  00000-0  51418-3 0  9995
2 42217  83.0340 321.9505 0121073  63.0663 312.2487 13.70837144635952
Epoch: 2026-08-20T11:52Z
TLE epoch observation values (Epoch: 2026-08-20T11:52:44.935Z)
Latitude
14.14025°
Longitude
176.6847°
Altitude
939.292 km
Speed
7.413 km/s
True Right ascension
21h 34m 49s
True Declination
14° 03' 40"
Sunlit
Object was in full shadow at epoch
Visualization orbit readout
Latitude
Unknown
Longitude
Unknown
Altitude
Unknown
Speed
Unknown
Apparent Right ascension
Unknown
Apparent Declination
Unknown
Sunlit
N/A
Visualization observer readout
Local Sidereal Time
15:29:29
Azimuth
Unknown
Elevation
Unknown
Doppler factor
Unknown
Orbital elements
Apogee altitude
1,082.971 km
Perigee altitude
904.464 km
Semi-major axis
7,371.855 km
Eccentricity
0.01211
Inclination
83.034°
RAAN
321.9505°
Arg. of periapsis
63.0663°
True anomaly
311.21121°
Mean anomaly
312.2487°
Eccentric anomaly
311.73101°
Mean motion
3.42908 °/min
Orbital period
104.98 mins
BSTAR
0.00051418
Loading maneuver chart data...
Computing Atmospheric mass density...
Loading historical data...
Loading historical data...
Loading historical data...
Loading historical data...
Loading historical data...
Loading historical data...
Loading historical data...

Documentation

Showing up to 5 results
|